Location: Gipe Farm
(40.9466°N, 95.5370°W)
Time: 05:07:17
(UTC-05:00)

Cosmos 1842 - Visible Passes

Search period start: 28 April 2017 00:00
Search period end: 08 May 2017 00:00
Orbit: 523 x 542 km, 82.5° (Epoch: 26 April)

Date Brightness Start Highest point End Pass type
(mag) Time Alt. Az. Time Alt. Az. Time Alt. Az.
28 Apr 4.4 03:44:23 38° NNW 03:44:23 38° NNW 03:46:57 10° N visible
29 Apr 4.5 03:34:44 36° N 03:34:44 36° N 03:37:09 10° N visible
30 Apr 4.7 03:25:03 34° N 03:25:03 34° N 03:27:21 10° N visible
01 May 4.8 03:15:22 32° N 03:15:22 32° N 03:17:33 10° N visible
02 May 5.0 03:05:40 30° N 03:05:40 30° N 03:07:44 10° N visible
03 May 5.1 02:55:57 29° N 02:55:57 29° N 02:57:54 10° N visible
04 May 5.2 02:46:13 27° N 02:46:13 27° N 02:48:06 10° N visible
05 May 5.3 02:36:28 26° N 02:36:28 26° N 02:38:16 10° N visible
06 May 5.4 02:26:42 25° NNE 02:26:42 25° NNE 02:28:26 10° N visible
07 May 5.5 02:16:55 24° NNE 02:16:55 24° NNE 02:18:36 10° N visible
